| time (UTC) | temp F | wind direction | speed MPH | gust MPH | rain 1hr in | rain 24hr in | rain mn in | humidity % | barometer mb |
| 20260506155119 | 67 | 205 | 7.0 | 14.0 | 0.00 | 0.00 | 0.00 | 74 | 1007.1 |
| 20260506154639 | 67 | 217 | 7.0 | 16.0 | 0.00 | 0.00 | 0.00 | 72 | 1007.2 |
| 20260506154630 | 67 | 207 | 7.0 | 16.0 | 0.00 | 0.00 | 0.00 | 73 | 1007.1 |
| 20260506153608 | 67 | 207 | 8.0 | 16.0 | 0.00 | 0.00 | 0.00 | 73 | 1007.3 |
| 20260506153344 | 67 | 202 | 8.0 | 16.0 | 0.00 | 0.00 | 0.00 | 73 | 1007.4 |
| 20260506152609 | 67 | 209 | 9.0 | 21.0 | 0.00 | 0.00 | 0.00 | 73 | 1007.3 |
| 20260506152104 | 67 | 167 | 10.0 | 21.0 | 0.00 | 0.00 | 0.00 | 73 | 1007.2 |
| 20260506151604 | 67 | 200 | 9.0 | 21.0 | 0.00 | 0.00 | 0.00 | 73 | 1007.3 |
| 20260506151343 | 67 | 224 | 7.0 | 20.0 | 0.00 | 0.00 | 0.00 | 71 | 1007.3 |
| 20260506150603 | 67 | 141 | 7.0 | 20.0 | 0.00 | 0.00 | 0.00 | 72 | 1007.3 |
| 20260506145603 | 68 | 207 | 7.0 | 20.0 | 0.00 | 0.00 | 0.00 | 71 | 1007.3 |
| 20260506145105 | 68 | 165 | 7.0 | 15.0 | 0.00 | 0.00 | 0.00 | 71 | 1007.3 |
| 20260506144603 | 68 | 144 | 7.0 | 16.0 | 0.00 | 0.00 | 0.00 | 71 | 1007.3 |
| 20260506144103 | 68 | 263 | 7.0 | 19.0 | 0.00 | 0.00 | 0.00 | 70 | 1007.3 |
| 20260506143603 | 68 | 219 | 8.0 | 19.0 | 0.00 | 0.00 | 0.00 | 69 | 1007.2 |
| 20260506143102 | 69 | 188 | 8.0 | 20.0 | 0.00 | 0.00 | 0.00 | 69 | 1007.4 |
| 20260506142602 | 70 | 169 | 9.0 | 20.0 | 0.00 | 0.00 | 0.00 | 67 | 1007.5 |
| 20260506142101 | 70 | 220 | 7.0 | 21.0 | 0.00 | 0.00 | 0.00 | 67 | 1007.6 |
| 20260506141603 | 71 | 119 | 7.0 | 21.0 | 0.00 | 0.00 | 0.00 | 65 | 1007.6 |
| 20260506141101 | 72 | 164 | 8.0 | 23.0 | 0.00 | 0.00 | 0.00 | 64 | 1007.6 |
| 20260506140602 | 72 | 215 | 9.0 | 23.0 | 0.00 | 0.00 | 0.00 | 62 | 1007.6 |
| 20260506140343 | 73 | 144 | 7.0 | 20.0 | 0.00 | 0.00 | 0.00 | 65 | 1007.7 |
| 20260506135847 | 72 | 213 | 7.0 | 19.0 | 0.00 | 0.00 | 0.00 | 64 | 1007.6 |
| 20260506135100 | 72 | 174 | 8.0 | 19.0 | 0.00 | 0.00 | 0.00 | 63 | 1007.6 |
| 20260506134846 | 73 | 173 | 7.0 | 21.0 | 0.00 | 0.00 | 0.00 | 62 | 1007.6 |
| 20260506134101 | 73 | 93 | 7.0 | 21.0 | 0.00 | 0.00 | 0.00 | 62 | 1007.7 |
| 20260506133602 | 72 | 185 | 7.0 | 17.0 | 0.00 | 0.00 | 0.00 | 64 | 1007.6 |
| 20260506133101 | 71 | 198 | 8.0 | 18.0 | 0.00 | 0.00 | 0.00 | 65 | 1007.5 |
| 20260506132604 | 70 | 235 | 8.0 | 18.0 | 0.00 | 0.00 | 0.00 | 65 | 1007.5 |
| 20260506132058 | 71 | 178 | 8.0 | 21.0 | 0.00 | 0.00 | 0.00 | 64 | 1007.7 |
| 20260506131559 | 71 | 130 | 8.0 | 21.0 | 0.00 | 0.00 | 0.00 | 63 | 1007.8 |
| 20260506131056 | 71 | 213 | 7.0 | 19.0 | 0.00 | 0.00 | 0.00 | 63 | 1007.7 |
| 20260506130843 | 71 | 216 | 7.0 | 19.0 | 0.00 | 0.00 | 0.00 | 62 | 1007.8 |
| 20260506130056 | 73 | 192 | 7.0 | 19.0 | 0.00 | 0.00 | 0.00 | 61 | 1007.9 |
| 20260506125552 | 74 | 156 | 8.0 | 21.0 | 0.00 | 0.00 | 0.00 | 58 | 1008.1 |
| 20260506125050 | 74 | 269 | 9.0 | 21.0 | 0.00 | 0.00 | 0.00 | 59 | 1008.1 |
| 20260506124546 | 75 | 163 | 7.0 | 18.0 | 0.00 | 0.00 | 0.00 | 58 | 1007.9 |
| 20260506124338 | 75 | 233 | 7.0 | 20.0 | 0.00 | 0.00 | 0.00 | 58 | 1007.9 |
| 20260506123544 | 75 | 135 | 7.0 | 20.0 | 0.00 | 0.00 | 0.00 | 58 | 1007.8 |
| 20260506123034 | 76 | 173 | 7.0 | 18.0 | 0.00 | 0.00 | 0.00 | 56 | 1008.3 |
| 20260506122817 | 75 | 232 | 7.0 | 20.0 | 0.00 | 0.00 | 0.00 | 58 | 1008.3 |
| 20260506122030 | 76 | 195 | 6.0 | 20.0 | 0.00 | 0.00 | 0.00 | 57 | 1008.3 |
| 20260506121533 | 76 | 208 | 5.0 | 17.0 | 0.00 | 0.00 | 0.00 | 56 | 1008.3 |
| 20260506121031 | 75 | 210 | 5.0 | 15.0 | 0.00 | 0.00 | 0.00 | 59 | 1008.3 |
| 20260506120530 | 74 | 247 | 6.0 | 15.0 | 0.00 | 0.00 | 0.00 | 60 | 1008.2 |
| 20260506120031 | 74 | 284 | 7.0 | 18.0 | 0.00 | 0.00 | 0.00 | 58 | 1008.2 |
| 20260506115538 | 74 | 161 | 6.0 | 18.0 | 0.00 | 0.00 | 0.00 | 58 | 1008.3 |
| 20260506115028 | 74 | 114 | 6.0 | 14.0 | 0.00 | 0.00 | 0.00 | 58 | 1008.2 |
| 20260506114517 | 75 | 157 | 5.0 | 15.0 | 0.00 | 0.00 | 0.00 | 56 | 1008.4 |
| 20260506114016 | 75 | 167 | 6.0 | 15.0 | 0.00 | 0.00 | 0.00 | 57 | 1008.4 |
| 20260506113514 | 74 | 191 | 6.0 | 17.0 | 0.00 | 0.00 | 0.00 | 58 | 1008.5 |
| 20260506113011 | 75 | 203 | 4.0 | 17.0 | 0.00 | 0.00 | 0.00 | 57 | 1008.5 |
| 20260506112511 | 75 | 182 | 4.0 | 13.0 | 0.00 | 0.00 | 0.00 | 59 | 1008.7 |
| 20260506112009 | 74 | 123 | 4.0 | 13.0 | 0.00 | 0.00 | 0.00 | 60 | 1008.6 |
| 20260506111511 | 72 | 203 | 3.0 | 13.0 | 0.00 | 0.00 | 0.00 | 61 | 1008.6 |
| 20260506111011 | 72 | 198 | 3.0 | 9.0 | 0.00 | 0.00 | 0.00 | 62 | 1008.6 |
| 20260506110747 | 73 | 163 | 4.0 | 13.0 | 0.00 | 0.00 | 0.00 | 61 | 1008.7 |
| 20260506110007 | 73 | 169 | 5.0 | 13.0 | 0.00 | 0.00 | 0.00 | 60 | 1008.9 |
| 20260506105745 | 74 | 234 | 4.0 | 13.0 | 0.00 | 0.00 | 0.00 | 60 | 1009.0 |
| 20260506105005 | 72 | 196 | 4.0 | 15.0 | 0.00 | 0.00 | 0.00 | 63 | 1008.9 |
| 20260506104502 | 70 | 123 | 4.0 | 15.0 | 0.00 | 0.00 | 0.00 | 64 | 1008.8 |
| 20260506104236 | 70 | 174 | 4.0 | 13.0 | 0.00 | 0.00 | 0.00 | 64 | 1008.8 |
| 20260506103505 | 70 | 211 | 4.0 | 13.0 | 0.00 | 0.00 | 0.00 | 65 | 1008.7 |
| 20260506103003 | 70 | 265 | 5.0 | 14.0 | 0.00 | 0.00 | 0.00 | 65 | 1008.8 |
| 20260506102746 | 69 | 202 | 6.0 | 21.0 | 0.00 | 0.00 | 0.00 | 65 | 1008.8 |
| 20260506102001 | 69 | 202 | 6.0 | 21.0 | 0.00 | 0.00 | 0.00 | 65 | 1008.8 |
| 20260506101503 | 69 | 240 | 6.0 | 17.0 | 0.00 | 0.00 | 0.00 | 64 | 1008.8 |
| 20260506101002 | 69 | 229 | 6.0 | 17.0 | 0.00 | 0.00 | 0.00 | 63 | 1008.9 |
| 20260506100501 | 69 | 227 | 7.0 | 17.0 | 0.00 | 0.00 | 0.00 | 63 | 1008.8 |
| 20260506095953 | 70 | 193 | 7.0 | 19.0 | 0.00 | 0.00 | 0.00 | 61 | 1008.9 |
| 20260506095453 | 71 | 134 | 7.0 | 19.0 | 0.00 | 0.00 | 0.00 | 60 | 1008.9 |
| 20260506094949 | 72 | 181 | 6.0 | 15.0 | 0.00 | 0.00 | 0.00 | 59 | 1009.0 |
| 20260506094449 | 73 | 238 | 5.0 | 15.0 | 0.00 | 0.00 | 0.00 | 57 | 1008.9 |
| 20260506093941 | 74 | 221 | 4.0 | 15.0 | 0.00 | 0.00 | 0.00 | 53 | 1009.0 |
| 20260506093715 | 76 | 146 | 4.0 | 12.0 | 0.00 | 0.00 | 0.00 | 54 | 1009.2 |
| 20260506093217 | 75 | 165 | 5.0 | 17.0 | 0.00 | 0.00 | 0.00 | 55 | 1008.9 |
| 20260506092434 | 74 | 219 | 5.0 | 17.0 | 0.00 | 0.00 | 0.00 | 54 | 1008.9 |
| 20260506091934 | 74 | 234 | 5.0 | 12.0 | 0.00 | 0.00 | 0.00 | 54 | 1008.7 |
| 20260506091433 | 75 | 237 | 4.0 | 14.0 | 0.00 | 0.00 | 0.00 | 53 | 1008.9 |
| 20260506090931 | 75 | 169 | 4.0 | 14.0 | 0.00 | 0.00 | 0.00 | 54 | 1008.9 |
| 20260506090431 | 76 | 189 | 4.0 | 12.0 | 0.00 | 0.00 | 0.00 | 53 | 1009.0 |
| 20260506085922 | 74 | 205 | 4.0 | 12.0 | 0.00 | 0.00 | 0.00 | 55 | 1008.9 |
| 20260506085409 | 74 | 281 | 3.0 | 12.0 | 0.00 | 0.00 | 0.00 | 54 | 1009.0 |
| 20260506084902 | 73 | 191 | 2.0 | 8.0 | 0.00 | 0.00 | 0.00 | 54 | 1008.9 |
| 20260506084400 | 74 | 202 | 2.0 | 7.0 | 0.00 | 0.00 | 0.00 | 59 | 1009.0 |
| 20260506084140 | 73 | 161 | 3.0 | 8.0 | 0.00 | 0.00 | 0.00 | 59 | 1009.0 |
| 20260506083402 | 72 | 229 | 3.0 | 11.0 | 0.00 | 0.00 | 0.00 | 59 | 1009.1 |
| 20260506082902 | 72 | 120 | 3.0 | 11.0 | 0.00 | 0.00 | 0.00 | 61 | 1009.0 |
| 20260506082403 | 71 | 144 | 3.0 | 8.0 | 0.00 | 0.00 | 0.00 | 62 | 1008.9 |
| 20260506082218 | 71 | 213 | 3.0 | 8.0 | 0.00 | 0.00 | 0.00 | 63 | 1009.0 |
| 20260506081402 | 71 | 144 | 1.0 | 8.0 | 0.00 | 0.00 | 0.00 | 62 | 1008.9 |
| 20260506080902 | 70 | 128 | 1.0 | 6.0 | 0.00 | 0.00 | 0.00 | 64 | 1008.8 |
| 20260506080403 | 70 | 126 | 3.0 | 7.0 | 0.00 | 0.00 | 0.00 | 64 | 1008.9 |
| 20260506072902 | 66 | 198 | 2.0 | 6.0 | 0.00 | 0.00 | 0.00 | 72 | 1008.9 |
| 20260506072403 | 66 | 163 | 2.0 | 7.0 | 0.00 | 0.00 | 0.00 | 70 | 1008.8 |
| 20260506071856 | 66 | 196 | 2.0 | 8.0 | 0.00 | 0.00 | 0.00 | 69 | 1008.8 |
| 20260506071347 | 67 | 115 | 1.0 | 4.0 | 0.00 | 0.00 | 0.00 | 70 | 1008.8 |
| 20260506070844 | 66 | 109 | 1.0 | 4.0 | 0.00 | 0.00 | 0.00 | 70 | 1008.7 |
| 20260506070341 | 66 | 143 | 1.0 | 4.0 | 0.00 | 0.00 | 0.00 | 72 | 1008.8 |
| 20260506062256 | 60 | 196 | 0.0 | 2.0 | 0.00 | 0.00 | 0.00 | 75 | 1008.6 |
| 20260506061756 | 61 | 268 | 1.0 | 3.0 | 0.00 | 0.00 | 0.00 | 75 | 1008.7 |
| 20260506061538 | 61 | 348 | 2.0 | 4.0 | 0.00 | 0.00 | 0.00 | 77 | 1008.7 |
| 20260506060742 | 60 | 68 | 1.0 | 4.0 | 0.00 | 0.00 | 0.00 | 79 | 1008.5 |
| 20260506060241 | 59 | 86 | 1.0 | 4.0 | 0.00 | 0.00 | 0.00 | 79 | 1008.5 |
| 20260506051300 | 49 | 309 | 1.0 | 3.0 | 0.00 | 0.00 | 0.00 | 100 | 1007.8 |
| 20260506051252 | 50 | 49 | 1.0 | 2.0 | 0.00 | 0.00 | 0.00 | 100 | 1007.8 |
| 20260506050231 | 49 | 21 | 1.0 | 3.0 | 0.00 | 0.00 | 0.00 | 100 | 1007.6 |
| 20260506045017 | 48 | 52 | 0.0 | 2.0 | 0.00 | 0.00 | 0.00 | 99 | 1007.7 |
| 20260506044223 | 48 | 344 | 1.0 | 2.0 | 0.00 | 0.00 | 0.00 | 98 | 1007.6 |
| 20260506043710 | 48 | 333 | 1.0 | 2.0 | 0.00 | 0.00 | 0.00 | 98 | 1007.5 |
| 20260506043209 | 48 | 313 | 1.0 | 2.0 | 0.00 | 0.00 | 0.00 | 98 | 1007.6 |
| 20260506042703 | 48 | 348 | 0.0 | 2.0 | 0.00 | 0.00 | 0.00 | 98 | 1007.5 |
| 20260506042203 | 48 | 327 | 1.0 | 2.0 | 0.00 | 0.00 | 0.00 | 98 | 1007.5 |
| 20260506041702 | 48 | 326 | 1.0 | 2.0 | 0.00 | 0.00 | 0.00 | 97 | 1007.5 |
| 20260506041200 | 48 | 321 | 0.0 | 2.0 | 0.00 | 0.00 | 0.00 | 97 | 1007.5 |
| 20260506040702 | 48 | 303 | 0.0 | 2.0 | 0.00 | 0.00 | 0.00 | 97 | 1007.5 |
| 20260506040201 | 49 | 303 | 1.0 | 3.0 | 0.00 | 0.00 | 0.00 | 97 | 1007.5 |
| 20260506035702 | 49 | 303 | 1.0 | 3.0 | 0.00 | 0.00 | 0.00 | 97 | 1007.4 |
| 20260506035201 | 49 | 292 | 1.0 | 2.0 | 0.00 | 0.00 | 0.00 | 97 | 1007.4 |
| 20260506034709 | 49 | 279 | 0.0 | 2.0 | 0.00 | 0.00 | 0.00 | 97 | 1007.3 |
| 20260506034205 | 49 | 279 | 0.0 | 2.0 | 0.00 | 0.00 | 0.00 | 97 | 1007.3 |
| 20260506033652 | 49 | 279 | 0.0 | 2.0 | 0.00 | 0.00 | 0.00 | 97 | 1007.2 |
| 20260506033134 | 49 | 279 | 0.0 | 2.0 | 0.00 | 0.00 | 0.00 | 97 | 1007.3 |
| 20260506032630 | 49 | 279 | 1.0 | 2.0 | 0.00 | 0.00 | 0.00 | 97 | 1007.2 |
| 20260506032131 | 49 | 279 | 1.0 | 2.0 | 0.00 | 0.00 | 0.00 | 97 | 1007.3 |
| 20260506031629 | 49 | 279 | 0.0 | 2.0 | 0.00 | 0.00 | 0.00 | 97 | 1007.2 |
| 20260506031411 | 50 | 285 | 1.0 | 2.0 | 0.00 | 0.00 | 0.00 | 96 | 1007.2 |
| 20260506030702 | 50 | 12 | 1.0 | 2.0 | 0.00 | 0.00 | 0.00 | 96 | 1007.3 |
| 20260506030654 | 50 | 326 | 1.0 | 2.0 | 0.00 | 0.00 | 0.00 | 96 | 1007.2 |
| 20260506025629 | 50 | 286 | 1.0 | 3.0 | 0.00 | 0.00 | 0.00 | 96 | 1007.3 |
| 20260506025131 | 50 | 326 | 1.0 | 3.0 | 0.00 | 0.00 | 0.00 | 96 | 1007.3 |
| 20260506024621 | 50 | 336 | 0.0 | 2.0 | 0.00 | 0.00 | 0.00 | 96 | 1007.3 |
| 20260506024121 | 50 | 344 | 1.0 | 2.0 | 0.00 | 0.00 | 0.00 | 96 | 1007.3 |
| 20260506023615 | 50 | 355 | 1.0 | 2.0 | 0.00 | 0.00 | 0.00 | 96 | 1007.3 |
| 20260506023116 | 51 | 73 | 1.0 | 3.0 | 0.00 | 0.00 | 0.00 | 96 | 1007.1 |
| 20260506022617 | 51 | 292 | 1.0 | 4.0 | 0.00 | 0.00 | 0.00 | 96 | 1007.3 |
| 20260506022115 | 51 | 289 | 1.0 | 4.0 | 0.00 | 0.00 | 0.00 | 96 | 1007.1 |
| 20260506021852 | 51 | 72 | 1.0 | 3.0 | 0.00 | 0.00 | 0.00 | 96 | 1007.0 |
| 20260506021112 | 51 | 34 | 0.0 | 2.0 | 0.00 | 0.00 | 0.00 | 96 | 1007.0 |
| 20260506020610 | 51 | 252 | 1.0 | 3.0 | 0.00 | 0.00 | 0.00 | 96 | 1007.0 |
| 20260506015602 | 51 | 282 | 1.0 | 4.0 | 0.00 | 0.00 | 0.00 | 95 | 1007.1 |
| 20260506015102 | 51 | 337 | 1.0 | 3.0 | 0.00 | 0.00 | 0.00 | 95 | 1007.1 |
| 20260506014603 | 51 | 302 | 1.0 | 2.0 | 0.00 | 0.00 | 0.00 | 95 | 1007.1 |
| 20260506014102 | 51 | 265 | 1.0 | 2.0 | 0.00 | 0.00 | 0.00 | 94 | 1007.0 |
| 20260506013602 | 52 | 294 | 0.0 | 2.0 | 0.00 | 0.00 | 0.00 | 94 | 1007.0 |
| 20260506013101 | 52 | 316 | 0.0 | 2.0 | 0.00 | 0.00 | 0.00 | 94 | 1006.9 |
| 20260506012905 | 52 | 216 | 0.0 | 2.0 | 0.00 | 0.00 | 0.00 | 94 | 1006.8 |
| 20260506012102 | 52 | 216 | 1.0 | 3.0 | 0.00 | 0.00 | 0.00 | 94 | 1006.8 |
| 20260506011603 | 52 | 5 | 1.0 | 3.0 | 0.00 | 0.00 | 0.00 | 94 | 1006.8 |
| 20260506011101 | 52 | 271 | 1.0 | 3.0 | 0.00 | 0.00 | 0.00 | 94 | 1006.8 |
| 20260506010603 | 52 | 286 | 1.0 | 3.0 | 0.00 | 0.00 | 0.00 | 94 | 1006.8 |
| 20260506010346 | 52 | 326 | 1.0 | 3.0 | 0.00 | 0.00 | 0.00 | 94 | 1006.8 |
| 20260506005558 | 52 | 306 | 1.0 | 3.0 | 0.00 | 0.00 | 0.00 | 94 | 1006.8 |
| 20260506005323 | 52 | 27 | 2.0 | 4.0 | 0.00 | 0.00 | 0.00 | 94 | 1006.7 |
| 20260506004546 | 52 | 74 | 2.0 | 5.0 | 0.00 | 0.00 | 0.00 | 93 | 1006.8 |
| 20260506004034 | 53 | 58 | 1.0 | 5.0 | 0.00 | 0.00 | 0.00 | 93 | 1006.8 |
| 20260506003529 | 53 | 130 | 1.0 | 5.0 | 0.00 | 0.00 | 0.00 | 93 | 1006.7 |
| 20260506003313 | 53 | 76 | 1.0 | 5.0 | 0.00 | 0.00 | 0.00 | 92 | 1006.6 |
| 20260506002532 | 53 | 333 | 1.0 | 3.0 | 0.00 | 0.00 | 0.00 | 91 | 1006.6 |
| 20260506002033 | 53 | 319 | 1.0 | 3.0 | 0.00 | 0.00 | 0.00 | 91 | 1006.7 |
| 20260506001523 | 53 | 306 | 1.0 | 3.0 | 0.00 | 0.00 | 0.00 | 91 | 1006.7 |
| 20260506001021 | 53 | 286 | 1.0 | 3.0 | 0.00 | 0.00 | 0.00 | 91 | 1006.7 |
| 20260506000520 | 54 | 24 | 1.0 | 3.0 | 0.00 | 0.00 | 0.00 | 92 | 1006.8 |
| 20260506000016 | 54 | 24 | 1.0 | 3.0 | 0.00 | 0.00 | 0.00 | 92 | 1006.8 |
| 20260505235514 | 54 | 34 | 1.0 | 3.0 | 0.00 | 0.00 | 0.00 | 92 | 1006.7 |
| 20260505235015 | 54 | 350 | 1.0 | 3.0 | 0.00 | 0.00 | 0.00 | 92 | 1006.7 |
| 20260505234515 | 54 | 326 | 1.0 | 3.0 | 0.00 | 0.00 | 0.00 | 93 | 1006.7 |
| 20260505234009 | 54 | 148 | 1.0 | 5.0 | 0.00 | 0.00 | 0.00 | 93 | 1006.6 |
| 20260505233746 | 54 | 235 | 3.0 | 7.0 | 0.00 | 0.00 | 0.00 | 93 | 1006.8 |
| 20260505233244 | 53 | 169 | 3.0 | 7.0 | 0.00 | 0.00 | 0.00 | 94 | 1006.8 |
| 20260505232744 | 53 | 128 | 1.0 | 6.0 | 0.00 | 0.00 | 0.00 | 94 | 1006.7 |
| 20260505232003 | 53 | 66 | 1.0 | 5.0 | 0.00 | 0.00 | 0.00 | 94 | 1006.7 |
| 20260505231501 | 53 | 219 | 3.0 | 9.0 | 0.00 | 0.00 | 0.00 | 94 | 1006.6 |
| 20260505231001 | 53 | 165 | 3.0 | 9.0 | 0.00 | 0.00 | 0.00 | 94 | 1006.7 |
| 20260505230502 | 53 | 266 | 2.0 | 8.0 | 0.00 | 0.00 | 0.00 | 93 | 1006.6 |
| 20260505225957 | 53 | 240 | 2.0 | 4.0 | 0.00 | 0.00 | 0.00 | 92 | 1006.9 |
| 20260505225446 | 53 | 218 | 2.0 | 3.0 | 0.00 | 0.00 | 0.00 | 91 | 1006.8 |
| 20260505224945 | 53 | 237 | 1.0 | 3.0 | 0.00 | 0.00 | 0.00 | 91 | 1006.8 |
| 20260505224440 | 53 | 205 | 1.0 | 3.0 | 0.00 | 0.00 | 0.00 | 91 | 1006.9 |
| 20260505223938 | 53 | 194 | 0.0 | 3.0 | 0.00 | 0.00 | 0.00 | 91 | 1006.9 |
| 20260505223438 | 53 | 197 | 0.0 | 2.0 | 0.00 | 0.00 | 0.00 | 91 | 1006.9 |
| 20260505222934 | 53 | 207 | 0.0 | 1.0 | 0.00 | 0.00 | 0.00 | 91 | 1007.0 |
| 20260505222429 | 54 | 179 | 1.0 | 2.0 | 0.00 | 0.00 | 0.00 | 91 | 1007.0 |
| 20260505221931 | 54 | 193 | 1.0 | 2.0 | 0.00 | 0.00 | 0.00 | 91 | 1007.0 |
| 20260505221717 | 54 | 94 | 1.0 | 2.0 | 0.00 | 0.00 | 0.00 | 91 | 1007.0 |
| 20260505220929 | 54 | 5 | 1.0 | 3.0 | 0.00 | 0.00 | 0.00 | 90 | 1007.0 |
| 20260505220428 | 54 | 221 | 0.0 | 4.0 | 0.00 | 0.00 | 0.00 | 90 | 1006.9 |
| 20260505220209 | 54 | 219 | 0.0 | 4.0 | 0.00 | 0.00 | 0.00 | 90 | 1006.9 |
| 20260505215429 | 54 | 259 | 0.0 | 2.0 | 0.00 | 0.00 | 0.00 | 90 | 1006.9 |
| 20260505215211 | 54 | 250 | 1.0 | 4.0 | 0.00 | 0.00 | 0.00 | 90 | 1006.9 |
| 20260505214422 | 54 | 242 | 2.0 | 4.0 | 0.00 | 0.00 | 0.00 | 90 | 1006.9 |
| 20260505213924 | 54 | 252 | 1.0 | 4.0 | 0.00 | 0.00 | 0.00 | 90 | 1007.0 |
| 20260505213416 | 54 | 236 | 1.0 | 4.0 | 0.00 | 0.00 | 0.00 | 90 | 1007.1 |
| 20260505212910 | 54 | 188 | 0.0 | 2.0 | 0.00 | 0.00 | 0.00 | 90 | 1007.0 |
| 20260505212410 | 54 | 275 | 1.0 | 2.0 | 0.00 | 0.00 | 0.00 | 89 | 1007.1 |
| 20260505212149 | 54 | 275 | 1.0 | 2.0 | 0.00 | 0.00 | 0.00 | 89 | 1007.1 |
| 20260505211404 | 54 | 292 | 1.0 | 2.0 | 0.00 | 0.00 | 0.00 | 89 | 1007.1 |
| 20260505210902 | 54 | 282 | 0.0 | 2.0 | 0.00 | 0.00 | 0.00 | 90 | 1007.1 |
| 20260505210401 | 54 | 201 | 0.0 | 2.0 | 0.00 | 0.00 | 0.00 | 89 | 1007.2 |
| 20260505205854 | 55 | 199 | 0.0 | 1.0 | 0.00 | 0.00 | 0.00 | 89 | 1007.3 |
| 20260505205338 | 55 | 199 | 0.0 | 2.0 | 0.00 | 0.00 | 0.00 | 89 | 1007.2 |
| 20260505204834 | 55 | 65 | 0.0 | 2.0 | 0.00 | 0.00 | 0.00 | 88 | 1007.2 |
| 20260505204329 | 55 | 65 | 0.0 | 2.0 | 0.00 | 0.00 | 0.00 | 88 | 1007.2 |
| 20260505203832 | 56 | 86 | 1.0 | 2.0 | 0.00 | 0.00 | 0.00 | 87 | 1007.2 |
| 20260505203331 | 56 | 355 | 1.0 | 2.0 | 0.00 | 0.00 | 0.00 | 87 | 1007.2 |
| 20260505202829 | 55 | 324 | 0.0 | 2.0 | 0.00 | 0.00 | 0.00 | 87 | 1007.2 |
| 20260505202331 | 56 | 335 | 0.0 | 3.0 | 0.00 | 0.00 | 0.00 | 86 | 1007.2 |
| 20260505201830 | 56 | 281 | 1.0 | 3.0 | 0.00 | 0.00 | 0.00 | 86 | 1007.3 |
| 20260505201329 | 56 | 232 | 0.0 | 2.0 | 0.00 | 0.00 | 0.00 | 86 | 1007.4 |
| 20260505200829 | 56 | 264 | 0.0 | 2.0 | 0.00 | 0.00 | 0.00 | 85 | 1007.4 |
| 20260505200329 | 57 | 264 | 0.0 | 2.0 | 0.00 | 0.00 | 0.00 | 85 | 1007.3 |
| 20260505195840 | 57 | 264 | 0.0 | 2.0 | 0.00 | 0.00 | 0.00 | 84 | 1007.4 |
| 20260505195328 | 57 | 0 | 0.0 | 2.0 | 0.00 | 0.00 | 0.00 | 84 | 1007.4 |
| 20260505194829 | 57 | 0 | 0.0 | 2.0 | 0.00 | 0.00 | 0.00 | 83 | 1007.4 |
| 20260505194329 | 58 | 0 | 0.0 | 2.0 | 0.00 | 0.00 | 0.00 | 82 | 1007.4 |
| 20260505193819 | 59 | 0 | 0.0 | 2.0 | 0.00 | 0.00 | 0.00 | 80 | 1007.4 |
| 20260505193310 | 59 | 287 | 1.0 | 5.0 | 0.00 | 0.00 | 0.00 | 79 | 1007.6 |
| 20260505192808 | 60 | 252 | 2.0 | 7.0 | 0.00 | 0.00 | 0.00 | 79 | 1007.5 |
| 20260505192311 | 60 | 205 | 2.0 | 7.0 | 0.00 | 0.00 | 0.00 | 78 | 1007.6 |
| 20260505191805 | 60 | 184 | 2.0 | 6.0 | 0.00 | 0.00 | 0.00 | 78 | 1007.6 |
| 20260505191303 | 60 | 213 | 3.0 | 11.0 | 0.00 | 0.00 | 0.00 | 77 | 1007.6 |
| 20260505190801 | 60 | 238 | 3.0 | 11.0 | 0.00 | 0.00 | 0.00 | 77 | 1007.5 |
| 20260505190301 | 60 | 209 | 3.0 | 9.0 | 0.00 | 0.00 | 0.00 | 77 | 1007.5 |
| 20260505185802 | 60 | 207 | 3.0 | 10.0 | 0.00 | 0.00 | 0.00 | 77 | 1007.6 |
| 20260505185539 | 60 | 217 | 3.0 | 12.0 | 0.00 | 0.00 | 0.00 | 76 | 1007.5 |
| 20260505184801 | 61 | 150 | 3.0 | 12.0 | 0.00 | 0.00 | 0.00 | 76 | 1007.4 |
| 20260505184304 | 61 | 176 | 3.0 | 10.0 | 0.00 | 0.00 | 0.00 | 76 | 1007.4 |
| 20260505183802 | 61 | 151 | 4.0 | 10.0 | 0.00 | 0.00 | 0.00 | 75 | 1007.5 |
| 20260505183303 | 61 | 191 | 4.0 | 11.0 | 0.00 | 0.00 | 0.00 | 75 | 1007.5 |
| 20260505182804 | 61 | 192 | 5.0 | 15.0 | 0.00 | 0.00 | 0.00 | 74 | 1007.4 |
| 20260505182305 | 62 | 197 | 6.0 | 15.0 | 0.00 | 0.00 | 0.00 | 74 | 1007.4 |
| 20260505181800 | 62 | 146 | 6.0 | 15.0 | 0.00 | 0.00 | 0.00 | 73 | 1007.3 |
| 20260505181301 | 62 | 188 | 5.0 | 15.0 | 0.00 | 0.00 | 0.00 | 73 | 1007.4 |
| 20260505181033 | 62 | 143 | 4.0 | 13.0 | 0.00 | 0.00 | 0.00 | 72 | 1007.3 |
| 20260505180254 | 62 | 167 | 3.0 | 11.0 | 0.00 | 0.00 | 0.00 | 72 | 1007.4 |
| 20260505175755 | 62 | 192 | 3.0 | 10.0 | 0.00 | 0.00 | 0.00 | 71 | 1007.4 |
| 20260505175252 | 63 | 156 | 3.0 | 10.0 | 0.00 | 0.00 | 0.00 | 71 | 1007.4 |
| 20260505174747 | 63 | 160 | 4.0 | 16.0 | 0.00 | 0.00 | 0.00 | 70 | 1007.5 |
| 20260505174518 | 63 | 196 | 4.0 | 16.0 | 0.00 | 0.00 | 0.00 | 70 | 1007.5 |
| 20260505173740 | 64 | 143 | 5.0 | 17.0 | 0.00 | 0.00 | 0.00 | 70 | 1007.6 |
| 20260505173239 | 64 | 15 | 5.0 | 17.0 | 0.00 | 0.00 | 0.00 | 69 | 1007.5 |
| 20260505172733 | 64 | 241 | 5.0 | 13.0 | 0.00 | 0.00 | 0.00 | 69 | 1007.5 |
| 20260505172519 | 64 | 189 | 5.0 | 13.0 | 0.00 | 0.00 | 0.00 | 68 | 1007.5 |
| 20260505171730 | 65 | 200 | 4.0 | 13.0 | 0.00 | 0.00 | 0.00 | 68 | 1007.6 |
| 20260505171229 | 65 | 116 | 5.0 | 16.0 | 0.00 | 0.00 | 0.00 | 67 | 1007.7 |
| 20260505170731 | 65 | 187 | 6.0 | 16.0 | 0.00 | 0.00 | 0.00 | 67 | 1007.7 |
| 20260505170229 | 65 | 226 | 8.0 | 19.0 | 0.00 | 0.00 | 0.00 | 66 | 1007.7 |
| 20260505165730 | 66 | 150 | 9.0 | 24.0 | 0.00 | 0.00 | 0.00 | 66 | 1007.8 |
| 20260505165230 | 66 | 204 | 7.0 | 24.0 | 0.00 | 0.00 | 0.00 | 65 | 1007.7 |
| 20260505164732 | 66 | 213 | 6.0 | 20.0 | 0.00 | 0.00 | 0.00 | 65 | 1007.8 |
| 20260505164505 | 66 | 186 | 7.0 | 18.0 | 0.00 | 0.00 | 0.00 | 65 | 1007.8 |
| 20260505164007 | 66 | 219 | 8.0 | 22.0 | 0.00 | 0.00 | 0.00 | 65 | 1007.9 |
| 20260505163231 | 66 | 213 | 9.0 | 22.0 | 0.00 | 0.00 | 0.00 | 65 | 1007.8 |
| 20260505162729 | 66 | 179 | 8.0 | 19.0 | 0.00 | 0.00 | 0.00 | 64 | 1007.9 |
| 20260505162229 | 67 | 184 | 6.0 | 16.0 | 0.00 | 0.00 | 0.00 | 64 | 1007.8 |
| 20260505162035 | 67 | 142 | 7.0 | 20.0 | 0.00 | 0.00 | 0.00 | 63 | 1007.7 |
| 20260505161224 | 67 | 49 | 8.0 | 20.0 | 0.00 | 0.00 | 0.00 | 63 | 1007.9 |
| 20260505161008 | 67 | 162 | 7.0 | 19.0 | 0.00 | 0.00 | 0.00 | 62 | 1007.9 |
| 20260505160212 | 68 | 207 | 7.0 | 18.0 | 0.00 | 0.00 | 0.00 | 62 | 1008.3 |